Weather History for North Wilkesboro, NC

Change the Weather History Date:

Sunday, March 2, 2014

  Actual Average Record
Temperature  
Mean Temperature 49 °F -  
Max Temperature 68 °F 56 °F 78 °F (1976)
Min Temperature 30 °F 29 °F 15 °F (1980)
Degree Days  
Heating Degree Days 16    
Moisture  
Dew Point 37 °F    
Average Humidity 62    
Maximum Humidity 93    
Minimum Humidity 37    
Precipitation  
Precipitation 0.00 in - - ()
Sea Level Pressure  
Sea Level Pressure 30.10 in    
Wind  
Wind Speed 3 mph (SW)    
Max Wind Speed 13 mph    
Max Gust Speed 22 mph    
Visibility 10 miles    
Events      
Averages and records for this station are not official NWS values.
T = Trace of Precipitation, MM = Missing Value Source: NWS Daily Summary

Daily Weather History Graph

Daily Weather History Graph

Search for Another Location

Airport:

Trip Planner

Search our weather history database for the weather conditions in past years. The results will help you decide how hot, cold, wet, or windy it might be!

Date:

Astronomy

Mar. 02, 2014 Rise Set
Actual Time 6:53 AM EST 6:20 PM EST
Civil Twilight 6:27 AM EST 6:45 PM EST
Nautical Twilight 5:57 AM EST 7:15 PM EST
Astronomical Twilight 5:28 AM EST 7:45 PM EST
Moon 7:27 AM EST (3/2) 8:10 PM EST (3/2)
Length of Visible Light 12h 18m
Length of Day
11h 26m
Waxing Crescent, 3% of the Moon is Illuminated
Mar 2
Waxing Crescent
Mar 8
First Quarter
Mar 16
Full
Mar 23
Last Quarter
Mar 30
New

Hourly Weather History & Observations

Time (EST) Temp. Dew Point Humidity Pressure Visibility Wind Dir Wind Speed Gust Speed Precip Events Conditions
12:15 AM 33.8 °F 26.6 °F 75% 30.27 in 10.0 mi Calm Calm - N/A   Clear
12:55 AM 32.0 °F 26.6 °F 80% 30.25 in 10.0 mi Calm Calm - N/A   Clear
1:15 AM 32.0 °F 26.6 °F 80% 30.25 in 10.0 mi Calm Calm - N/A   Clear
1:35 AM 32.0 °F 26.6 °F 80% 30.26 in 10.0 mi Calm Calm - N/A   Clear
1:55 AM 32.0 °F 26.6 °F 80% 30.25 in 10.0 mi Calm Calm - N/A   Clear
2:35 AM 30.2 °F 26.6 °F 86% 30.23 in 10.0 mi Calm Calm - N/A   Clear
2:50 AM 30.2 °F 26.6 °F 86% 30.23 in 10.0 mi Calm Calm - N/A   Clear
3:10 AM 32.0 °F 26.6 °F 80% 30.22 in 10.0 mi Calm Calm - N/A   Clear
3:40 AM 30.2 °F 26.6 °F 86% 30.22 in 10.0 mi Calm Calm - N/A   Clear
3:55 AM 30.2 °F 26.6 °F 86% 30.21 in 10.0 mi Calm Calm - N/A   Clear
4:35 AM 30.2 °F 28.4 °F 93% 30.22 in 10.0 mi Calm Calm - N/A   Clear
4:55 AM 32.0 °F 28.4 °F 87% 30.22 in 10.0 mi Calm Calm - N/A   Clear
5:15 AM 30.2 °F 28.4 °F 93% 30.23 in 10.0 mi Calm Calm - N/A   Mostly Cloudy
5:35 AM 30.2 °F 28.4 °F 93% 30.23 in 10.0 mi Calm Calm - N/A   Overcast
5:55 AM 30.2 °F 28.4 °F 93% 30.22 in 10.0 mi Calm Calm - N/A   Overcast
6:10 AM 32.0 °F 28.4 °F 87% 30.22 in 10.0 mi Calm Calm - N/A   Overcast
6:35 AM 32.0 °F 28.4 °F 87% 30.21 in 10.0 mi Calm Calm - N/A   Overcast
7:00 AM 32.0 °F 30.2 °F 93% 30.22 in 10.0 mi Calm Calm - N/A   Overcast
7:15 AM 32.0 °F 30.2 °F 93% 30.22 in 10.0 mi Calm Calm - N/A   Overcast
7:35 AM 32.0 °F 30.2 °F 93% 30.22 in 10.0 mi Calm Calm - N/A   Scattered Clouds
7:55 AM 33.8 °F 30.2 °F 87% 30.21 in 10.0 mi Calm Calm - N/A   Clear
8:15 AM 35.6 °F 30.2 °F 81% 30.22 in 10.0 mi Calm Calm - N/A   Clear
8:35 AM 35.6 °F 32.0 °F 87% 30.20 in 10.0 mi Calm Calm - N/A   Clear
8:50 AM 37.4 °F 32.0 °F 81% 30.22 in 10.0 mi Calm Calm - N/A   Clear
9:15 AM 41.0 °F 32.0 °F 70% 30.20 in 10.0 mi Calm Calm - N/A   Clear
9:35 AM 42.8 °F 32.0 °F 66% 30.19 in 10.0 mi Calm Calm - N/A   Clear
9:55 AM 44.6 °F 32.0 °F 61% 30.19 in 10.0 mi Calm Calm - N/A   Clear
10:15 AM 50.0 °F 33.8 °F 54% 30.18 in 10.0 mi SSW 5.8 mph - N/A   Clear
10:35 AM 53.6 °F 35.6 °F 51% 30.17 in 10.0 mi WSW 6.9 mph - N/A   Clear
10:55 AM 55.4 °F 37.4 °F 51% 30.17 in 10.0 mi SW 4.6 mph - N/A   Scattered Clouds
11:15 AM 59.0 °F 35.6 °F 42% 30.14 in 10.0 mi South 5.8 mph - N/A   Scattered Clouds
11:35 AM 60.8 °F 37.4 °F 42% 30.14 in 10.0 mi WSW 10.4 mph - N/A   Clear
11:55 AM 62.6 °F 39.2 °F 42% 30.12 in 10.0 mi South 8.1 mph - N/A   Clear
12:15 PM 62.6 °F 39.2 °F 42% 30.12 in 10.0 mi SSW 6.9 mph - N/A   Clear
12:35 PM 62.6 °F 41.0 °F 45% 30.11 in 10.0 mi SW 6.9 mph - N/A   Clear
12:55 PM 64.4 °F 41.0 °F 42% 30.09 in 10.0 mi South 9.2 mph - N/A   Clear
1:15 PM 64.4 °F 41.0 °F 42% 30.08 in 10.0 mi SSW 10.4 mph - N/A   Clear
1:35 PM 64.4 °F 41.0 °F 42% 30.07 in 10.0 mi SSW 6.9 mph 17.3 mph N/A   Clear
1:55 PM 64.4 °F 41.0 °F 42% 30.06 in 10.0 mi WSW 6.9 mph - N/A   Clear
2:15 PM 68.0 °F 41.0 °F 37% 30.05 in 10.0 mi SSW 12.7 mph 19.6 mph N/A   Clear
2:35 PM 66.2 °F 42.8 °F 43% 30.05 in 10.0 mi SW 9.2 mph 21.9 mph N/A   Clear
2:55 PM 66.2 °F 42.8 °F 43% 30.03 in 10.0 mi SW 8.1 mph 20.7 mph N/A   Clear
3:15 PM 64.4 °F 42.8 °F 45% 30.03 in 10.0 mi SSW 9.2 mph - N/A   Clear
3:35 PM 66.2 °F 42.8 °F 43% 30.02 in 10.0 mi SW 10.4 mph - N/A   Clear
3:55 PM 68.0 °F 42.8 °F 40% 30.01 in 10.0 mi SSW 6.9 mph - N/A   Clear
4:15 PM 68.0 °F 42.8 °F 40% 30.00 in 10.0 mi SW 9.2 mph 18.4 mph N/A   Clear
4:35 PM 66.2 °F 42.8 °F 43% 30.00 in 10.0 mi SSW 6.9 mph - N/A   Clear
4:55 PM 66.2 °F 42.8 °F 43% 29.99 in 10.0 mi SSW 8.1 mph - N/A   Clear
5:15 PM 68.0 °F 42.8 °F 40% 29.99 in 10.0 mi SW 8.1 mph - N/A   Clear
5:35 PM 66.2 °F 42.8 °F 43% 29.98 in 10.0 mi SW 9.2 mph 18.4 mph N/A   Clear
5:55 PM 64.4 °F 42.8 °F 45% 29.98 in 10.0 mi SSW 10.4 mph - N/A   Scattered Clouds
6:15 PM 62.6 °F 42.8 °F 48% 29.98 in 10.0 mi SSW 10.4 mph - N/A   Mostly Cloudy
6:35 PM 62.6 °F 42.8 °F 48% 29.98 in 10.0 mi SSW 6.9 mph - N/A   Mostly Cloudy
6:55 PM 62.6 °F 42.8 °F 48% 29.99 in 10.0 mi SW 4.6 mph - N/A   Mostly Cloudy
7:15 PM 62.6 °F 42.8 °F 48% 29.99 in 10.0 mi SW 4.6 mph - N/A   Overcast
7:35 PM 62.6 °F 42.8 °F 48% 29.99 in 10.0 mi SSW 3.5 mph - N/A   Overcast
7:55 PM 60.8 °F 42.8 °F 52% 29.99 in 10.0 mi SSW 3.5 mph - N/A   Overcast
8:15 PM 60.8 °F 42.8 °F 52% 29.98 in 10.0 mi SSW 4.6 mph - N/A   Mostly Cloudy
8:35 PM 60.8 °F 42.8 °F 52% 29.98 in 10.0 mi SSW 4.6 mph - N/A   Scattered Clouds
8:55 PM 60.8 °F 42.8 °F 52% 29.97 in 10.0 mi South 4.6 mph - N/A   Scattered Clouds
9:15 PM 60.8 °F 42.8 °F 52% 29.96 in 10.0 mi SSE 3.5 mph - N/A   Scattered Clouds
9:35 PM 59.0 °F 42.8 °F 55% 29.96 in 10.0 mi South 3.5 mph - N/A   Clear
9:55 PM 59.0 °F 44.6 °F 59% 29.95 in 10.0 mi Calm Calm - N/A   Clear
10:15 PM 59.0 °F 44.6 °F 59% 29.95 in 10.0 mi SSW 3.5 mph - N/A   Clear
10:35 PM 59.0 °F 44.6 °F 59% 29.95 in 10.0 mi SW 5.8 mph - N/A   Scattered Clouds
10:55 PM 59.0 °F 44.6 °F 59% 29.95 in 10.0 mi SW 3.5 mph - N/A   Mostly Cloudy
11:15 PM 59.0 °F 44.6 °F 59% 29.93 in 10.0 mi SW 4.6 mph - N/A   Scattered Clouds
11:35 PM 59.0 °F 44.6 °F 59% 29.94 in 10.0 mi WSW 4.6 mph - N/A   Clear
11:55 PM 57.2 °F 44.6 °F 63% 29.93 in 10.0 mi NNW 3.5 mph - N/A   Mostly Cloudy